YG2BMZ Weather Reports


time (UTC)temp
F
wind
direction
speed
knots
gust
knots
rain 1hr
in
rain 24hr
in
rain mn
in
humidity
%
barometer
mb
20260505192622 87 0.0 0.0 0.00 0.00 0.00 83 1019.8
20260505192121 87 0.0 0.0 0.00 0.00 0.00 83 1019.9
20260505191619 87 0.0 0.0 0.00 0.00 0.00 83 1019.8
20260505191114 87 0.0 0.0 0.00 0.00 0.00 83 1019.9
20260505190612 87 0.0 0.0 0.00 0.00 0.00 83 1020.0
20260505190110 87 0.0 0.0 0.00 0.00 0.00 82 1020.0
20260505185609 87 0.0 0.0 0.00 0.00 0.00 82 1020.0
20260505185107 87 0.0 0.0 0.00 0.00 0.00 82 1020.0
20260505184605 87 0.0 0.0 0.00 0.00 0.00 82 1020.1
20260505184105 87 0.0 0.0 0.00 0.00 0.00 82 1020.1
20260505183603 88 0.0 0.0 0.00 0.00 0.00 82 1020.1
20260505172051 88 0.0 0.0 0.00 0.00 0.00 80 1020.6
20260505171549 89 0.0 0.0 0.00 0.00 0.00 80 1020.7
20260505171047 89 0.0 0.0 0.00 0.00 0.00 80 1020.9
20260505170547 89 0.0 0.0 0.00 0.00 0.00 80 1021.0
20260505170045 89 0.0 0.0 0.00 0.00 0.00 80 1021.0
20260505165543 89 0.0 0.0 0.00 0.00 0.00 80 1021.1
20260505165042 89 0.0 0.0 0.00 0.00 0.00 80 1021.2
20260505164540 89 0.0 0.0 0.00 0.00 0.00 80 1021.3
20260505162036 89 0.0 0.0 0.00 0.00 0.00 80 1021.3
20260505161536 89 0.0 0.0 0.00 0.00 0.00 80 1021.3
20260505153024 89 0.0 0.0 0.00 0.00 0.00 80 1021.2
20260505152523 89 0.0 0.0 0.00 0.00 0.00 79 1021.1
20260505151018 89 0.0 0.0 0.00 0.00 0.00 79 1020.9
20260505150517 89 0.0 0.0 0.00 0.00 0.00 79 1020.8
20260505124945 91 0.0 0.0 0.00 0.00 0.00 76 1020.6
20260505124445 91 0.0 0.0 0.00 0.00 0.00 75 1020.7
20260505123944 91 0.0 0.0 0.00 0.00 0.00 75 1020.5
20260505123442 91 0.0 0.0 0.00 0.00 0.00 75 1020.5
20260505120936 91 0.0 0.0 0.00 0.00 0.00 75 1020.5
20260505120435 91 0.0 0.0 0.00 0.00 0.00 75 1020.4
20260505115434 91 0.0 0.0 0.00 0.00 0.00 75 1019.8
20260505114933 91 0.0 0.0 0.00 0.00 0.00 75 1019.5
20260505114431 91 0.0 0.0 0.00 0.00 0.00 75 1019.3
20260505113930 91 0.0 0.0 0.00 0.00 0.00 75 1019.4
20260505113429 91 0.0 0.0 0.00 0.00 0.00 75 1019.4
20260505112930 91 0.0 0.0 0.00 0.00 0.00 76 1019.3
20260505111927 91 0.0 0.0 0.00 0.00 0.00 75 1019.2
20260505111429 91 0.0 0.0 0.00 0.00 0.00 75 1019.2
20260505110924 91 0.0 0.0 0.00 0.00 0.00 76 1019.2
20260505110424 91 0.0 0.0 0.00 0.00 0.00 76 1019.1
20260505101411 92 0.0 0.0 0.00 0.00 0.00 75 1018.5
20260505010514 87 0.0 0.0 0.00 0.00 0.00 80 1021.4
20260505010012 87 0.0 0.0 0.00 0.00 0.00 81 1021.4
20260505005510 87 0.0 0.0 0.00 0.00 0.00 81 1021.4
20260505005009 87 0.0 0.0 0.00 0.00 0.00 81 1021.3
20260505004007 87 0.0 0.0 0.00 0.00 0.00 81 1021.2
20260505003505 87 0.0 0.0 0.00 0.00 0.00 82 1021.1
20260505003004 87 0.0 0.0 0.00 0.00 0.00 82 1021.1
20260505002001 86 0.0 0.0 0.00 0.00 0.00 82 1020.9
20260505001459 86 0.0 0.0 0.00 0.00 0.00 82 1020.9
20260504235454 86 0.0 0.0 0.00 0.00 0.00 83 1020.6
20260504233950 85 0.0 0.0 0.00 0.00 0.00 83 1020.4
20260504233448 85 0.0 0.0 0.00 0.00 0.00 83 1020.4
20260504232946 85 0.0 0.0 0.00 0.00 0.00 83 1020.4
20260504232445 85 0.0 0.0 0.00 0.00 0.00 83 1020.3
20260504231443 85 0.0 0.0 0.00 0.00 0.00 83 1020.2
20260504230942 85 0.0 0.0 0.00 0.00 0.00 83 1020.1
20260504225939 85 0.0 0.0 0.00 0.00 0.00 83 1020.0
20260504225438 85 0.0 0.0 0.00 0.00 0.00 83 1019.9
20260504224940 85 0.0 0.0 0.00 0.00 0.00 83 1019.9
20260504223936 86 0.0 0.0 0.00 0.00 0.00 83 1019.8
20260504222931 85 0.0 0.0 0.00 0.00 0.00 83 1019.7
20260504222430 86 0.0 0.0 0.00 0.00 0.00 83 1019.7
20260504221928 85 0.0 0.0 0.00 0.00 0.00 83 1019.7
20260504221427 86 0.0 0.0 0.00 0.00 0.00 83 1019.6
20260504215923 86 0.0 0.0 0.00 0.00 0.00 83 1019.6
20260504215421 86 0.0 0.0 0.00 0.00 0.00 82 1019.7
20260504213917 86 0.0 0.0 0.00 0.00 0.00 82 1019.7
20260504213416 86 0.0 0.0 0.00 0.00 0.00 82 1019.7
20260504210911 86 0.0 0.0 0.00 0.00 0.00 82 1019.6
20260504205909 86 0.0 0.0 0.00 0.00 0.00 82 1019.5
20260504205407 86 0.0 0.0 0.00 0.00 0.00 81 1019.6
20260504204404 86 0.0 0.0 0.00 0.00 0.00 81 1019.6
20260504203902 86 0.0 0.0 0.00 0.00 0.00 82 1019.6
20260504203401 86 0.0 0.0 0.00 0.00 0.00 81 1019.6
20260504202358 86 0.0 0.0 0.00 0.00 0.00 81 1019.6
20260504201856 86 0.0 0.0 0.00 0.00 0.00 81 1019.6
20260504201354 86 0.0 0.0 0.00 0.00 0.00 81 1019.5
20260504200852 86 0.0 0.0 0.00 0.00 0.00 81 1019.6
20260504195348 86 0.0 0.0 0.00 0.00 0.00 81 1019.7
20260504194847 87 0.0 0.0 0.00 0.00 0.00 81 1019.8
20260504193343 87 0.0 0.0 0.00 0.00 0.00 81 1019.8
20260504192842 87 0.0 0.0 0.00 0.00 0.00 81 1019.8